Vorticity
8 10 12 8 7 4 5 6 5 3 3 5 4 2 3 4 4 4 4 4 4 4 4 4 4 4 4 3 3 2 3 3 4 4 6 4 4 4 6 5 5 5 6
6 5 6 9 12 5 6 8 7 4 4 4 3 2 6 6 5 5 4 4 5 5 5 4 4 4 4 5 4 3 2 4 3 3 2 4 4 2 6 6 2 5 5
5 5 5 7 6 12 8 6 6 6 7 4 4 5 6 7 7 6 5 6 5 5 6 4 4 6 5 5 5 5 6 5 4 5 5 3 4 3 4 5 6 4 3
5 5 5 5 6 8 10 6 1 7 6 5 4 7 4 10 10 6 8 6 5 6 7 5 6 5 5 4 7 6 7 7 5 6 7 5 4 3 5 4 4 7 3
7 6 6 7 6 5 7 10 7 1 2 4 6 5 5 6 8 6 7 7 8 6 6 6 6 5 5 8 7 5 5 5 5 5 7 8 6 4 4 6 5 7 5
9 8 9 8 7 10 7 7 12 8 2 4 6 6 1 11 6 1 12 9 6 7 7 5 6 7 16 7 4 4 3 3 4 6 8 9 8 7 4 6 5 4 3
17 12 9 11 11 11 12 9 0 16 13 3 4 5 6 5 4 3 5 6 8 5 8 7 20 27 32 6 0 4 3 1 3 5 9 12 9 5 7 5 8 7 3
19 17 19 17 10 11 11 16 10 0 5 5 17 9 10 8 4 0 7 4 4 5 8 11 13 16 -10 30 -3 -6 0 1 1 4 11 14 15 10 9 3 3 8 14
13 15 17 17 14 13 13 16 17 13 11 2 14 4 11 9 9 6 5 9 4 3 8 12 11 10 6 4 0 0 0 -1 0 4 11 16 17 11 5 12 14 8 16
22 23 21 21 22 19 12 13 16 17 14 15 -1 5 7 9 6 11 9 2 9 9 15 10 7 9 2 2 2 2 1 0 4 12 16 12 5 10 8 6 7 11 11
14 14 17 17 20 26 19 11 12 19 16 14 17 7 6 9 8 9 10 8 6 13 11 12 9 5 4 5 0 2 1 3 8 15 18 8 4 10 0 7 12 6 1
9 9 10 17 18 21 21 18 15 16 18 17 16 19 3 11 -2 8 9 6 5 7 4 7 1 6 6 1 6 1 0 8 11 16 8 5 6 6 5 28 1 3 -5
7 9 6 7 11 13 14 21 18 13 12 17 16 13 18 3 11 14 11 14 16 7 -7 32 7 1 3 -5 -5 21 -1 6 12 12 9 17 3 11 7 13 20 13 3
9 9 8 5 8 20 7 13 16 16 15 12 7 17 16 17 14 3 8 23 -4 4 9 4 36 29 10 10 10 2 13 13 8 28 11 17 18 -6 8 6 18 7 12
13 10 7 10 8 9 15 14 11 13 12 16 15 14 11 21 9 0 3 21 -40 -10 43 14 17 -11 11 6 8 7 11 5 19 4 2 -14 1 5 16 9 26 18 9
11 14 11 5 10 10 11 13 16 11 13 13 14 13 14 17 16 21 10 5 0 7 11 -23 7 5 4 3 11 4 11 16 5 18 15 7 21 9 10 11 -9 21 21
13 11 10 15 12 9 10 12 10 10 9 8 6 8 7 8 10 10 15 19 19 7 -2 6 3 4 5 7 9 18 6 -9 29 23 -10 22 11 -1 18 37 9 4 2
25 25 13 11 13 12 12 10 10 11 13 11 12 13 15 14 11 7 5 7 5 4 6 8 6 15 26 33 25 14 26 14 14 -10 7 30 23 9 1 11 4 5 10
25 26 8 12 16 12 12 13 14 14 14 13 9 10 10 13 14 13 11 9 7 8 8 8 14 8 15 8 11 -2 9 7 6 0 28 -14 4 8 9 11 11 9 8
-3 10 17 24 16 5 2 1 16 24 12 13 12 9 13 13 17 5 5 8 8 8 13 17 10 2 5 10 1 6 9 12 12 12 12 12 11 11 10 10 10 12 12
6 8 4 2 5 6 8 21 27 39 16 32 28 30 9 14 3 33 37 31 23 22 11 6 14 8 7 12 14 15 12 10 9 8 9 9 10 11 11 12 11 11 9
7 7 7 6 8 8 9 4 -1 2 5 1 6 11 12 6 11 9 9 7 17 16 6 10 14 16 13 9 6 7 8 10 10 10 10 11 10 11 10 9 9 9 9
8 8 8 7 8 8 8 8 7 5 4 5 6 7 8 10 10 11 10 9 9 8 6 5 6 5 8 9 10 10 10 10 10 9 7 10 7 8 8 9 9 9 9
7 8 8 8 7 7 7 7 7 7 7 7 7 7 7 7 8 9 9 9 9 9 9 9 9 8 8 8 7 7 8 8 9 11 10 9 13 10 10 12 12 10 10
7 7 7 7 8 8 8 8 8 8 8 9 9 9 9 8 8 8 9 9 9 9 8 7 7 7 7 8 8 9 11 12 12 11 9 6 7 8 8 10 12 12 12
7 7 7 7 7 7 7 7 7 7 7 7 7 8 8 8 6 7 7 7 7 7 8 8 9 10 10 10 9 8 6 5 6 8 9 10 13 15 16 16 19 18 17
Height
3145 3146 3146 3146 3146 3145 3146 3147 3147 3148 3149 3149 3150 3150 3150 3151 3151 3152 3152 3153 3153 3153 3153 3154 3153 3153 3153 3153 3153 3152 3151 3150 3150 3149 3149 3148 3146 3146 3145 3144 3143 3143 3142
3138 3137 3137 3138 3139 3138 3138 3139 3139 3140 3140 3141 3142 3143 3143 3143 3144 3145 3146 3146 3147 3147 3148 3148 3148 3149 3149 3148 3148 3147 3147 3146 3146 3145 3144 3143 3142 3142 3141 3140 3139 3138 3137
3127 3127 3127 3128 3129 3131 3131 3130 3131 3131 3132 3133 3134 3135 3136 3136 3137 3138 3138 3139 3140 3140 3141 3141 3142 3142 3142 3142 3142 3142 3142 3142 3141 3140 3139 3138 3137 3136 3135 3135 3134 3134 3132
3116 3116 3116 3117 3118 3119 3120 3120 3121 3122 3123 3124 3126 3127 3127 3127 3129 3129 3130 3131 3132 3133 3134 3134 3135 3135 3135 3135 3135 3135 3136 3136 3136 3135 3134 3133 3131 3130 3129 3129 3128 3128 3127
3106 3104 3104 3105 3106 3107 3108 3110 3111 3112 3113 3115 3117 3118 3118 3119 3119 3119 3121 3122 3124 3124 3125 3126 3127 3127 3127 3126 3128 3129 3129 3129 3129 3128 3127 3126 3125 3124 3123 3122 3122 3121 3121
3096 3094 3093 3092 3093 3093 3094 3096 3098 3101 3102 3105 3107 3108 3109 3108 3110 3110 3112 3113 3115 3117 3118 3118 3118 3118 3118 3117 3119 3121 3121 3121 3121 3121 3120 3119 3117 3116 3115 3115 3114 3114 3114
3086 3084 3082 3080 3080 3081 3083 3085 3086 3087 3090 3094 3096 3097 3101 3102 3100 3103 3106 3108 3109 3110 3110 3111 3109 3110 3106 3111 3113 3113 3114 3114 3113 3114 3113 3111 3110 3108 3107 3106 3106 3107 3107
3074 3073 3072 3070 3068 3069 3070 3072 3074 3077 3078 3083 3086 3088 3088 3092 3094 3098 3099 3101 3103 3102 3103 3104 3102 3099 3102 3105 3107 3106 3107 3106 3105 3105 3104 3102 3101 3100 3100 3098 3099 3098 3098
3063 3060 3058 3057 3056 3055 3057 3060 3062 3065 3068 3072 3076 3079 3079 3080 3084 3089 3091 3092 3094 3094 3095 3095 3095 3096 3096 3098 3098 3099 3100 3099 3096 3095 3094 3094 3092 3092 3091 3091 3090 3089 3089
3054 3052 3050 3048 3047 3047 3047 3049 3051 3053 3057 3060 3066 3069 3071 3072 3074 3077 3081 3083 3085 3086 3087 3087 3088 3089 3090 3090 3090 3091 3091 3089 3088 3086 3085 3084 3083 3083 3083 3082 3081 3080 3081
3047 3045 3043 3041 3039 3039 3039 3040 3041 3043 3046 3050 3054 3059 3063 3065 3066 3068 3071 3074 3075 3077 3077 3078 3077 3080 3080 3081 3081 3081 3080 3080 3079 3078 3076 3075 3074 3074 3074 3073 3072 3072 3071
3041 3039 3037 3035 3033 3032 3032 3031 3032 3035 3038 3041 3044 3048 3052 3056 3060 3061 3063 3066 3066 3067 3068 3061 3066 3069 3071 3072 3072 3071 3072 3071 3069 3069 3068 3067 3065 3065 3064 3063 3063 3062 3062
3037 3034 3032 3031 3029 3028 3027 3027 3027 3028 3030 3033 3036 3039 3043 3047 3050 3052 3054 3056 3058 3058 3059 3058 3054 3055 3058 3061 3062 3062 3063 3062 3061 3059 3058 3057 3056 3056 3055 3054 3053 3052 3051
3032 3031 3028 3027 3026 3024 3023 3022 3022 3022 3023 3026 3029 3031 3034 3038 3041 3044 3046 3048 3047 3048 3050 3050 3049 3051 3052 3052 3054 3053 3053 3052 3050 3049 3047 3047 3046 3045 3044 3044 3043 3042 3041
3027 3026 3025 3024 3022 3021 3020 3019 3018 3018 3019 3020 3022 3024 3026 3029 3032 3035 3038 3040 3038 3037 3041 3041 3041 3043 3045 3046 3046 3046 3043 3040 3039 3040 3039 3037 3035 3035 3034 3033 3032 3031 3031
3022 3021 3020 3020 3019 3018 3016 3015 3015 3015 3015 3015 3017 3019 3020 3022 3025 3027 3029 3031 3031 3032 3034 3028 3033 3034 3037 3036 3035 3036 3032 3029 3029 3029 3028 3027 3025 3024 3023 3023 3022 3022 3022
3017 3015 3015 3015 3014 3014 3012 3011 3011 3010 3010 3011 3012 3013 3015 3016 3018 3020 3021 3022 3023 3026 3026 3025 3025 3025 3025 3024 3025 3026 3023 3020 3018 3018 3018 3017 3016 3014 3014 3013 3013 3012 3011
3013 3012 3013 3012 3011 3010 3009 3007 3006 3006 3006 3007 3008 3009 3010 3012 3013 3014 3015 3016 3017 3019 3019 3018 3017 3015 3015 3015 3015 3015 3014 3012 3011 3008 3008 3008 3006 3007 3007 3004 3002 3000 2998
3013 3011 3011 3010 3009 3007 3005 3004 3002 3001 3001 3002 3003 3004 3005 3006 3007 3007 3008 3009 3010 3010 3011 3010 3008 3008 3006 3005 3005 3004 3005 3006 3003 3002 2998 2998 2997 2996 2994 2993 2991 2989 2987
3016 3013 3011 3009 3007 3005 3003 3001 2998 2997 2997 2997 2998 2999 3000 3000 3000 3000 3001 3002 3002 3002 3003 3002 3002 3000 2999 2999 2998 2997 2999 2997 2994 2992 2991 2989 2987 2985 2983 2982 2980 2979 2977
3015 3012 3010 3008 3006 3004 3002 2999 2995 2993 2996 2995 2995 2995 2997 2996 2994 2993 2993 2994 2995 2996 2996 2995 2994 2994 2994 2993 2993 2993 2992 2990 2986 2984 2982 2980 2978 2975 2973 2971 2968 2967 2965
3014 3011 3009 3007 3006 3004 3001 2999 2998 2996 2995 2994 2994 2993 2993 2993 2992 2991 2991 2990 2990 2990 2991 2990 2989 2990 2989 2988 2986 2985 2984 2983 2980 2976 2975 2974 2968 2966 2962 2959 2956 2955 2952
3012 3010 3008 3006 3004 3002 3001 3000 2998 2996 2995 2994 2992 2991 2990 2990 2989 2989 2988 2987 2986 2986 2985 2984 2983 2982 2982 2981 2979 2977 2975 2973 2970 2964 2963 2967 2959 2958 2953 2949 2945 2942 2938
3010 3008 3005 3002 3000 2998 2997 2995 2994 2993 2992 2991 2990 2989 2988 2987 2986 2985 2984 2984 2983 2982 2981 2979 2978 2977 2975 2973 2971 2968 2966 2964 2962 2956 2952 2953 2952 2949 2945 2938 2935 2930 2926
3004 3003 3001 3000 2998 2996 2994 2993 2992 2991 2989 2988 2987 2985 2984 2982 2982 2981 2980 2979 2978 2977 2975 2974 2972 2970 2968 2965 2963 2960 2957 2954 2954 2951 2943 2940 2940 2937 2937 2931 2925 2920 2914
2999 2998 2996 2995 2994 2993 2992 2990 2989 2987 2986 2985 2984 2982 2981 2980 2978 2977 2976 2974 2973 2971 2969 2967 2965 2962 2960 2957 2954 2951 2948 2945 2941 2940 2933 2930 2927 2920 2919 2921 2913 2908 2902